Victoria, British Columbia

1:41 AM PST on February 21, 2018 (GMT -0800)
Victoria International

Weather History for CYYJ - May, 2013

Change the Weather History Date:

Monday, May 6, 2013

  Actual Average Record
Temperature  
Mean Temperature 64 °F -  
Max Temperature 77 °F 62 °F 79 °F (2016)
Min Temperature 51 °F 45 °F 35 °F (2001)
Degree Days  
Heating Degree Days 1    
Growing Degree Days 14 (Base 50)    
Moisture  
Dew Point 47 °F    
Average Humidity 55    
Maximum Humidity 77    
Minimum Humidity 25    
Precipitation  
Precipitation 0.00 in 0.04 in - ()
Sea Level Pressure  
Sea Level Pressure 29.83 in    
Wind  
Wind Speed 4 mph ()    
Max Wind Speed 8 mph    
Max Gust Speed -    
Averages and records for this station are not official NWS values.
T = Trace of Precipitation, MM = Missing Value Source: Averaged Metar Reports

Daily Weather History Graph

Daily Weather History Graph

Search for Another Location

Airport or City:

Trip Planner

Search our weather history database for the weather conditions in past years. The results will help you decide how hot, cold, wet, or windy it might be!

Date:

Astronomy

May. 06, 2013 Rise Set
Actual Time 5:45 AM PDT 8:36 PM PDT
Civil Twilight 5:08 AM PDT 9:12 PM PDT
Nautical Twilight 4:22 AM PDT 9:59 PM PDT
Astronomical Twilight 3:26 AM PDT 10:56 PM PDT
Moon 4:05 AM PDT (5/6) 5:29 PM PDT (5/6)
Length of Visible Light 16h 03m
Length of Day
14h 51m
Waning Crescent, 10% of the Moon is Illuminated
May 6
Waning Crescent
May 9
New
May 17
First Quarter
May 24
Full
May 31
Last Quarter

Hourly Weather History & Observations

Time (PDT) Temp. Dew Point Humidity Pressure Visibility Wind Dir Wind Speed Gust Speed Precip Events Conditions
12:00 AM 57.2 °F 48.2 °F 72% 29.83 in 30.0 mi WNW 3.5 mph - N/A   Clear
1:00 AM 57.2 °F 46.4 °F 67% 29.83 in 30.0 mi SE 2.3 mph - N/A   Clear
2:00 AM 55.4 °F 46.4 °F 72% 29.84 in 30.0 mi South 3.5 mph - N/A   Clear
3:00 AM 53.6 °F 44.6 °F 72% 29.85 in 30.0 mi WSW 6.9 mph - N/A   Clear
4:00 AM 53.6 °F 46.4 °F 77% 29.85 in 30.0 mi WSW 6.9 mph - N/A   Clear
5:00 AM 52 °F 45 °F 69% 29.86 in 28 mi WSW 6.9 mph - -  
5:00 AM 51.8 °F 44.6 °F 76% 29.86 in 30.0 mi WSW 5.8 mph - N/A   Clear
6:00 AM 53.6 °F 44.6 °F 72% 29.86 in 30.0 mi WNW 4.6 mph - N/A   Clear
7:00 AM 57.2 °F 46.4 °F 67% 29.86 in 30.0 mi Calm Calm - N/A   Clear
8:00 AM 62.6 °F 46.4 °F 55% 29.88 in 30.0 mi Calm Calm - N/A   Clear
9:00 AM 68.0 °F 46.4 °F 46% 29.87 in 30.0 mi NNW 2.3 mph - N/A   Clear
10:00 AM 69.8 °F 48.2 °F 46% 29.88 in 30.0 mi NE 5.8 mph - N/A   Clear
11:00 AM 71 °F 47 °F 31% 29.87 in 28 mi ENE 5.8 mph - -  
11:00 AM 71.6 °F 46.4 °F 41% 29.87 in 30.0 mi East 4.6 mph - N/A   Clear
12:00 PM 73.4 °F 48.2 °F 41% 29.86 in 30.0 mi NE 5.8 mph - N/A   Clear
1:00 PM 75.2 °F 48.2 °F 38% 29.84 in 30.0 mi East 6.9 mph - N/A   Clear
2:00 PM 75.2 °F 48.2 °F 38% 29.84 in 30.0 mi East 6.9 mph - N/A   Clear
3:00 PM 77.0 °F 48.2 °F 36% 29.83 in 30.0 mi East 6.9 mph - N/A   Partly Cloudy
4:00 PM 77.0 °F 48.2 °F 36% 29.81 in 30.0 mi ESE 8.1 mph - N/A   Partly Cloudy
5:00 PM 75 °F 46 °F 25% 29.79 in 28 mi ESE 5.8 mph - -  
5:00 PM 75.2 °F 46.4 °F 36% 29.79 in 30.0 mi ESE 5.8 mph - N/A   Clear
6:00 PM 75.2 °F 50.0 °F 41% 29.78 in 30.0 mi ESE 6.9 mph - N/A   Clear
7:00 PM 71.6 °F 50.0 °F 46% 29.77 in 30.0 mi East 5.8 mph - N/A   Clear
8:00 PM 62.6 °F 48.2 °F 59% 29.76 in 30.0 mi ESE 3.5 mph - N/A   Clear
9:00 PM 59.0 °F 48.2 °F 67% 29.77 in 30.0 mi East 2.3 mph - N/A   Clear
10:00 PM 57.2 °F 50.0 °F 77% 29.79 in 30.0 mi Calm Calm - N/A   Clear
11:00 PM 57 °F 49 °F 66% 29.80 in 28 mi SE 2.3 mph - -  
11:00 PM 57.2 °F 48.2 °F 72% 29.80 in 30.0 mi ESE 3.5 mph - N/A   Clear